Location: Albany
(35.0170°S, 117.8920°E)
Time: 04:04:53
(UTC+08:00)

Vanguard 1 - Pass Details

Date: 31 January 2021
Orbit: 649 x 3833 km, 34.2° (Epoch: 26 February)

Event Time Altitude Azimuth Distance (km) Brightness Sun altitude
Rises 18:53:33 0° 350° (N) 7,392 14.4 3.6°
Reaches altitude 10° 19:04:40 10° 18° (NNE) 5,523 13.5 1.4°
Maximum altitude 19:08:32 11° 32° (NNE) 5,042 13.2 0.7°
Drops below altitude 10° 19:11:58 10° 47° (NE) 4,787 13.0 0.0°
Enters shadow 19:18:31 - 76° (ENE) 4,934 13.0 -1.2°
Sets 19:18:57 0° 78° (ENE) 4,977 - -1.3°
